WetterOnline ( http://www.wetteronline.de )

Wetter aktuell Rostock

Aktuelles Wetter: Rostock-Warnemünde (10m)

6-stündlich | Neueste Meldungen
Ortszeit Temperatur Wetter
So, 20.01. 1:00 -1.6° C Nebel
Sa, 19.01. 19:00 0.1° C bedeckt
Sa, 19.01. 13:00 -0.2° C bedeckt
Sa, 19.01. 7:00 0.8° C bedeckt
Sa, 19.01. 1:00 0.8° C bedeckt
Fr, 18.01. 19:00 3.1° C bewölkt
Fr, 18.01. 13:00 2.1° C wolkenlos
Fr, 18.01. 7:00 1.6° C wolkig
Ortszeit Temperatur Wetter
So, 20.01. 5:10 -2.2° C Nebel
So, 20.01. 5:00 -2.2° C Nebel
So, 20.01. 4:50 -2.2° C Nebel
So, 20.01. 4:40 -2.2° C bedeckt
So, 20.01. 4:30 -2.3° C Nebel
So, 20.01. 4:20 -2.3° C Nebel
So, 20.01. 4:00 -2.4° C bedeckt
So, 20.01. 3:30 -2.2° C bedeckt
So, 20.01. 3:00 -2.0° C bedeckt
So, 20.01. 2:30 -2.0° C bedeckt
So, 20.01. 2:00 -1.8° C bedeckt
Ortszeit Relative Feuchte Sichtweite
So, 20.01. 1:00 99% 0.7 km
Sa, 19.01. 19:00 93% 5.0 km
Sa, 19.01. 13:00 96% 5.0 km
Sa, 19.01. 7:00 92% 7 km
Sa, 19.01. 1:00 92% 8 km
Fr, 18.01. 19:00 80% 30 km
Fr, 18.01. 13:00 68% 55 km
Fr, 18.01. 7:00 75% 35 km
Ortszeit Relative Feuchte Sichtweite
So, 20.01. 5:10 99% -
So, 20.01. 5:00 98% 0.7 km
So, 20.01. 4:50 98% -
So, 20.01. 4:40 99% -
So, 20.01. 4:30 100% 0.3 km
So, 20.01. 4:20 100% -
So, 20.01. 4:00 98% 1.4 km
So, 20.01. 3:30 97% 1.2 km
So, 20.01. 3:00 99% 3.8 km
So, 20.01. 2:30 98% 1.0 km
So, 20.01. 2:00 99% 1.2 km
Ortszeit Niederschlagsmenge Niederschlagsart
So, 20.01. 1:00 0.0 l/m2 in 6 Std. -
Sa, 19.01. 19:00 0.0 l/m2 in 12 Std. -
Sa, 19.01. 13:00 0.0 l/m2 in 6 Std. -
Sa, 19.01. 7:00 0.1 l/m2 in 12 Std. Sprühregen
Sa, 19.01. 1:00 0.0 l/m2 in 6 Std. -
Fr, 18.01. 19:00 0.0 l/m2 in 12 Std. -
Fr, 18.01. 13:00 0.0 l/m2 in 6 Std. -
Fr, 18.01. 7:00 0.1 l/m2 in 12 Std. -
Ortszeit Niederschlagsmenge Niederschlagsart
So, 20.01. 5:10 keine Meldung -
So, 20.01. 5:00 0.0 l/m2 in 1 Std. -
So, 20.01. 4:50 keine Meldung -
So, 20.01. 4:40 keine Meldung -
So, 20.01. 4:30 0.0 l/m2 in 1 Std. -
So, 20.01. 4:20 keine Meldung -
So, 20.01. 4:00 0.0 l/m2 in 1 Std. -
So, 20.01. 3:30 0.0 l/m2 in 1 Std. -
So, 20.01. 3:00 0.0 l/m2 in 1 Std. -
So, 20.01. 2:30 0.0 l/m2 in 1 Std. -
So, 20.01. 2:00 0.0 l/m2 in 1 Std. -
Ortszeit Stärke Spitze Richtung
km/h Bft. km/h Grad Sektor
So, 20.01. 1:00 7 2 18 160° S
Sa, 19.01. 19:00 6 1 15 170° S
Sa, 19.01. 13:00 7 2 20 200° S
Sa, 19.01. 7:00 11 2 25 210° SW
Sa, 19.01. 1:00 11 2 37 230° SW
Fr, 18.01. 19:00 30 5 46 280° W
Fr, 18.01. 13:00 15 3 35 240° SW
Fr, 18.01. 7:00 26 4 54 320° NW
Ortszeit Stärke Spitze Richtung
km/h Bft. km/h Grad Sektor
So, 20.01. 5:10 6 1 - 170° S
So, 20.01. 5:00 4 1 11 260° W
So, 20.01. 4:50 4 1 - 260° W
So, 20.01. 4:40 2 1 - 230° SW
So, 20.01. 4:30 0 0 11 - -
So, 20.01. 4:20 2 1 - 180° S
So, 20.01. 4:00 7 2 11 210° SW
So, 20.01. 3:30 7 2 13 210° SW
So, 20.01. 3:00 6 1 13 170° S
So, 20.01. 2:30 7 2 14 190° S
So, 20.01. 2:00 7 2 14 160° S
Ortszeit Untergrenze Bedeckung Gattung
total tief tief mittel hoch
So, 20.01. 1:00 30 m 8/8 8/8 - - -
Sa, 19.01. 19:00 120 m 8/8 8/8 - - -
Sa, 19.01. 13:00 60 m 8/8 8/8 - - -
Sa, 19.01. 7:00 360 m 8/8 8/8 - - -
Sa, 19.01. 1:00 180 m 8/8 8/8 - - -
Fr, 18.01. 19:00 540 m 7/8 7/8 - - -
Fr, 18.01. 13:00 - 0/8 0/8 - - -
Fr, 18.01. 7:00 690 m 4/8 6/8 - - -
Ortszeit Bedeckungsgrad in Achtel und Wolkenuntergrenze
So, 20.01. 5:10 8(30m)
So, 20.01. 5:00 8(<30m)
So, 20.01. 4:50 8(<30m)
So, 20.01. 4:40 8(<30m)
So, 20.01. 4:30 8(<30m)
So, 20.01. 4:20 8(<30m)
So, 20.01. 4:00 8(30m)
So, 20.01. 3:30 8(30m)
So, 20.01. 3:00 8(30m)
So, 20.01. 2:30 8(30m)
So, 20.01. 2:00 8(30m)
Ortszeit Luftdruck NN (hPa) Tendenz (hPa in 3 Std.)
So, 20.01. 1:00 1019 - 0,1
Sa, 19.01. 19:00 1019 0,0
Sa, 19.01. 13:00 1020 - 0,2
Sa, 19.01. 7:00 1019 + 0,1
Sa, 19.01. 1:00 1019 + 0,9
Fr, 18.01. 19:00 1017 + 1,3
Fr, 18.01. 13:00 1015 + 0,5
Fr, 18.01. 7:00 1012 + 2,8
Ortszeit Luftdruck NN (hPa) Tendenz (hPa in 3 Std.)
So, 20.01. 5:10 1019 keine Meldung
So, 20.01. 5:00 1019 - 0,1
So, 20.01. 4:50 1019 keine Meldung
So, 20.01. 4:40 1019 keine Meldung
So, 20.01. 4:30 1019 0,0
So, 20.01. 4:20 1019 keine Meldung
So, 20.01. 4:00 1019 0,0
So, 20.01. 3:30 1019 - 0,2
So, 20.01. 3:00 1019 - 0,1
So, 20.01. 2:30 1019 - 0,2
So, 20.01. 2:00 1019 - 0,1
Ortszeit Schneehöhe (cm)
So, 20.01. 1:00 0
Sa, 19.01. 19:00 0
Sa, 19.01. 13:00 0
Sa, 19.01. 7:00 0
Sa, 19.01. 1:00 0
Fr, 18.01. 19:00 0
Fr, 18.01. 13:00 0
Fr, 18.01. 7:00 0
Ortszeit Schneehöhe (cm)
So, 20.01. 5:10 0
So, 20.01. 5:00 0
So, 20.01. 4:50 0
So, 20.01. 4:40 0
So, 20.01. 4:30 0
So, 20.01. 4:20 0
So, 20.01. 4:00 0
So, 20.01. 3:30 0
So, 20.01. 3:00 0
So, 20.01. 2:30 0
So, 20.01. 2:00 0
Link zu dieser Seite / Seite empfehlen

Das Wetter in ...